Time,TemperatureF,DewpointF,PressureIn,WindDirection,WindDirectionDegrees,WindSpeedMPH,WindSpeedGustMPH,Humidity,HourlyPrecipIn,Conditions,Clouds,dailyrainin,SoftwareType,DateUTC
2013-05-06 00:01:00,59.5,39.8,29.67,North,0,0.0,0.0,48,0.00,,SKC,0.00,VWS V12.07,2013-05-06 04:01:00,
2013-05-06 00:06:00,59.3,39.6,29.67,North,0,0.0,0.0,48,0.00,,SKC,0.00,VWS V12.07,2013-05-06 04:06:00,
2013-05-06 00:11:00,59.3,39.1,29.67,North,0,0.0,0.0,47,0.00,,SKC,0.00,VWS V12.07,2013-05-06 04:11:00,
2013-05-06 00:16:00,59.1,38.9,29.66,North,0,0.0,0.0,47,0.00,,SKC,0.00,VWS V12.07,2013-05-06 04:16:00,
2013-05-06 00:21:00,59.1,38.9,29.66,North,0,0.0,0.0,47,0.00,,SKC,0.00,VWS V12.07,2013-05-06 04:21:00,
2013-05-06 00:26:00,58.8,38.6,29.66,North,0,0.0,0.0,47,0.00,,SKC,0.00,VWS V12.07,2013-05-06 04:26:00,
2013-05-06 00:31:00,58.8,38.6,29.66,North,0,0.0,0.0,47,0.00,,SKC,0.00,VWS V12.07,2013-05-06 04:31:00,
2013-05-06 00:36:00,58.8,38.6,29.66,North,0,0.0,0.0,47,0.00,,SKC,0.00,VWS V12.07,2013-05-06 04:36:00,
2013-05-06 00:41:00,58.8,38.6,29.66,North,0,0.0,0.0,47,0.00,,SKC,0.00,VWS V12.07,2013-05-06 04:41:00,
2013-05-06 00:47:00,58.8,38.6,29.65,North,0,0.0,0.0,47,0.00,,SKC,0.00,VWS V12.07,2013-05-06 04:47:00,
2013-05-06 00:52:00,58.8,38.6,29.65,North,0,0.0,0.0,47,0.00,,SKC,0.00,VWS V12.07,2013-05-06 04:52:00,
2013-05-06 00:57:00,58.8,38.6,29.65,North,0,0.0,0.0,47,0.00,,SKC,0.00,VWS V12.07,2013-05-06 04:57:00,
2013-05-06 01:02:00,58.8,38.6,29.65,North,0,0.0,0.0,47,0.00,,SKC,0.00,VWS V12.07,2013-05-06 05:02:00,
2013-05-06 01:07:00,58.6,39.0,29.65,North,0,0.0,0.0,48,0.00,,SKC,0.00,VWS V12.07,2013-05-06 05:07:00,
2013-05-06 01:12:00,58.4,38.8,29.65,North,0,0.0,0.0,48,0.00,,SKC,0.00,VWS V12.07,2013-05-06 05:12:00,
2013-05-06 01:17:00,58.2,38.6,29.65,North,0,0.0,0.0,48,0.00,,SKC,0.00,VWS V12.07,2013-05-06 05:17:00,
2013-05-06 01:22:00,58.2,38.6,29.65,North,0,0.0,0.0,48,0.00,,SKC,0.00,VWS V12.07,2013-05-06 05:22:00,
2013-05-06 01:27:00,58.2,38.6,29.66,North,0,0.0,0.0,48,0.00,,SKC,0.00,VWS V12.07,2013-05-06 05:27:00,
2013-05-06 01:32:00,58.1,38.5,29.66,North,0,0.0,0.0,48,0.00,,SKC,0.00,VWS V12.07,2013-05-06 05:32:00,
2013-05-06 01:37:00,58.1,38.5,29.65,North,0,0.0,0.0,48,0.00,,SKC,0.00,VWS V12.07,2013-05-06 05:37:00,
2013-05-06 01:42:00,57.9,38.9,29.65,North,0,0.0,0.0,49,0.00,,SKC,0.00,VWS V12.07,2013-05-06 05:42:00,
2013-05-06 01:47:00,57.9,38.9,29.65,North,0,0.0,0.0,49,0.00,,SKC,0.00,VWS V12.07,2013-05-06 05:47:00,
2013-05-06 01:52:00,57.7,38.7,29.64,North,0,0.0,0.0,49,0.00,,SKC,0.00,VWS V12.07,2013-05-06 05:52:00,
2013-05-06 01:57:00,57.7,38.7,29.64,North,0,0.0,0.0,49,0.00,,SKC,0.00,VWS V12.07,2013-05-06 05:57:00,
2013-05-06 02:02:00,57.5,38.5,29.64,North,0,0.0,0.0,49,0.00,,SKC,0.00,VWS V12.07,2013-05-06 06:02:00,
2013-05-06 02:07:00,57.5,39.0,29.64,North,0,0.0,0.0,50,0.00,,SKC,0.00,VWS V12.07,2013-05-06 06:07:00,
2013-05-06 02:12:00,57.3,38.8,29.64,North,0,0.0,0.0,50,0.00,,SKC,0.00,VWS V12.07,2013-05-06 06:12:00,
2013-05-06 02:17:00,57.3,38.8,29.64,North,0,0.0,0.0,50,0.00,,SKC,0.00,VWS V12.07,2013-05-06 06:17:00,
2013-05-06 02:22:00,57.3,39.3,29.64,North,0,0.0,0.0,51,0.00,,SKC,0.00,VWS V12.07,2013-05-06 06:22:00,
2013-05-06 02:27:00,57.3,39.3,29.64,North,0,0.0,0.0,51,0.00,,SKC,0.00,VWS V12.07,2013-05-06 06:27:00,
2013-05-06 02:32:00,57.3,39.3,29.64,North,0,0.0,0.0,51,0.00,,SKC,0.00,VWS V12.07,2013-05-06 06:32:00,
2013-05-06 02:37:00,57.3,39.3,29.64,North,0,0.0,0.0,51,0.00,,SKC,0.00,VWS V12.07,2013-05-06 06:37:00,
2013-05-06 02:42:00,57.2,39.2,29.64,North,0,0.0,0.0,51,0.00,,SKC,0.00,VWS V12.07,2013-05-06 06:42:00,
2013-05-06 02:47:00,57.2,39.8,29.64,North,0,0.0,0.0,52,0.00,,SKC,0.00,VWS V12.07,2013-05-06 06:47:00,
2013-05-06 02:52:00,57.2,39.8,29.64,North,0,0.0,0.0,52,0.00,,SKC,0.00,VWS V12.07,2013-05-06 06:52:00,
2013-05-06 02:57:00,57.3,39.8,29.64,North,0,0.0,0.0,52,0.00,,SKC,0.00,VWS V12.07,2013-05-06 06:57:00,
2013-05-06 03:02:00,57.3,39.8,29.64,North,0,0.0,0.0,52,0.00,,SKC,0.00,VWS V12.07,2013-05-06 07:02:00,
2013-05-06 03:07:00,57.3,39.8,29.64,North,0,0.0,0.0,52,0.00,,SKC,0.00,VWS V12.07,2013-05-06 07:07:00,
2013-05-06 03:12:00,57.3,39.8,29.64,North,0,0.0,0.0,52,0.00,,SKC,0.00,VWS V12.07,2013-05-06 07:12:00,
2013-05-06 03:17:00,57.3,39.8,29.64,North,0,0.0,0.0,52,0.00,,SKC,0.00,VWS V12.07,2013-05-06 07:17:00,
2013-05-06 03:22:00,57.3,39.8,29.64,North,0,0.0,0.0,52,0.00,,SKC,0.00,VWS V12.07,2013-05-06 07:22:00,
2013-05-06 03:27:00,57.3,39.8,29.64,North,0,0.0,0.0,52,0.00,,SKC,0.00,VWS V12.07,2013-05-06 07:27:00,
2013-05-06 03:32:00,57.3,39.8,29.63,North,0,0.0,0.0,52,0.00,,SKC,0.00,VWS V12.07,2013-05-06 07:32:00,
2013-05-06 03:37:00,57.3,39.8,29.63,North,0,0.0,0.0,52,0.00,,SKC,0.00,VWS V12.07,2013-05-06 07:37:00,
2013-05-06 03:42:00,57.3,39.8,29.63,North,0,0.0,0.0,52,0.00,,SKC,0.00,VWS V12.07,2013-05-06 07:42:00,
2013-05-06 03:47:00,57.3,39.8,29.63,North,0,0.0,0.0,52,0.00,,SKC,0.00,VWS V12.07,2013-05-06 07:47:00,
2013-05-06 03:52:00,57.3,39.8,29.63,North,0,0.0,0.0,52,0.00,,SKC,0.00,VWS V12.07,2013-05-06 07:52:00,
2013-05-06 03:57:00,57.3,39.8,29.63,North,0,0.0,0.0,52,0.00,,SKC,0.00,VWS V12.07,2013-05-06 07:57:00,
2013-05-06 04:02:00,57.3,39.8,29.63,North,0,0.0,0.0,52,0.00,,SKC,0.00,VWS V12.07,2013-05-06 08:02:00,
2013-05-06 04:07:00,57.3,39.8,29.63,North,0,0.0,0.0,52,0.00,,SKC,0.00,VWS V12.07,2013-05-06 08:07:00,
2013-05-06 04:12:00,57.3,39.8,29.63,North,0,0.0,0.0,52,0.00,,SKC,0.00,VWS V12.07,2013-05-06 08:12:00,
2013-05-06 04:17:00,57.3,39.8,29.63,North,0,0.0,0.0,52,0.00,,SKC,0.00,VWS V12.07,2013-05-06 08:17:00,
2013-05-06 04:22:00,57.2,40.2,29.63,North,0,0.0,0.0,53,0.00,,SKC,0.00,VWS V12.07,2013-05-06 08:22:00,
2013-05-06 04:27:00,57.2,40.2,29.63,North,0,0.0,0.0,53,0.00,,SKC,0.00,VWS V12.07,2013-05-06 08:27:00,
2013-05-06 04:32:00,57.2,40.2,29.63,North,0,0.0,0.0,53,0.00,,SKC,0.00,VWS V12.07,2013-05-06 08:32:00,
2013-05-06 04:37:00,57.2,40.2,29.63,North,0,0.0,0.0,53,0.00,,SKC,0.00,VWS V12.07,2013-05-06 08:37:00,
2013-05-06 04:42:00,57.0,40.1,29.63,North,0,0.0,0.0,53,0.00,,SKC,0.00,VWS V12.07,2013-05-06 08:42:00,
2013-05-06 04:47:00,57.0,40.1,29.63,North,0,0.0,0.0,53,0.00,,SKC,0.00,VWS V12.07,2013-05-06 08:47:00,
2013-05-06 04:52:00,57.0,40.1,29.63,North,0,0.0,0.0,53,0.00,,SKC,0.00,VWS V12.07,2013-05-06 08:52:00,
2013-05-06 04:57:00,57.0,40.1,29.63,North,0,0.0,0.0,53,0.00,,SKC,0.00,VWS V12.07,2013-05-06 08:57:00,
2013-05-06 05:02:00,57.0,40.1,29.63,North,0,0.0,0.0,53,0.00,,SKC,0.00,VWS V12.07,2013-05-06 09:02:00,
2013-05-06 05:07:00,57.0,40.1,29.63,North,0,0.0,0.0,53,0.00,,SKC,0.00,VWS V12.07,2013-05-06 09:07:00,
2013-05-06 05:12:00,56.8,39.9,29.63,North,0,0.0,0.0,53,0.00,,SKC,0.00,VWS V12.07,2013-05-06 09:12:00,
2013-05-06 05:17:00,56.8,40.3,29.63,North,0,0.0,0.0,54,0.00,,SKC,0.00,VWS V12.07,2013-05-06 09:17:00,
2013-05-06 05:22:00,56.8,40.3,29.63,North,0,0.0,0.0,54,0.00,,SKC,0.00,VWS V12.07,2013-05-06 09:22:00,
2013-05-06 05:27:00,56.8,40.3,29.63,North,0,0.0,0.0,54,0.00,,SKC,0.00,VWS V12.07,2013-05-06 09:27:00,
2013-05-06 05:32:00,56.4,40.0,29.63,North,0,0.0,0.0,54,0.00,,SKC,0.00,VWS V12.07,2013-05-06 09:32:00,
2013-05-06 05:37:00,56.4,40.0,29.63,North,0,0.0,0.0,54,0.00,,SKC,0.00,VWS V12.07,2013-05-06 09:37:00,
2013-05-06 05:42:00,56.4,40.0,29.63,North,0,0.0,0.0,54,0.00,,SKC,0.00,VWS V12.07,2013-05-06 09:42:00,
2013-05-06 05:47:00,56.4,40.5,29.63,North,0,0.0,0.0,55,0.00,,SKC,0.00,VWS V12.07,2013-05-06 09:47:00,
2013-05-06 05:52:00,56.4,40.0,29.64,North,0,0.0,0.0,54,0.00,,SKC,0.00,VWS V12.07,2013-05-06 09:52:00,
2013-05-06 05:57:00,56.4,40.0,29.63,North,0,0.0,0.0,54,0.00,,SKC,0.00,VWS V12.07,2013-05-06 09:57:00,
2013-05-06 06:02:00,56.4,40.0,29.64,North,0,0.0,0.0,54,0.00,,SKC,0.00,VWS V12.07,2013-05-06 10:02:00,
2013-05-06 06:07:00,56.4,40.5,29.64,North,0,0.0,0.0,55,0.00,,SKC,0.00,VWS V12.07,2013-05-06 10:07:00,
2013-05-06 06:12:00,56.3,40.4,29.64,North,0,0.0,0.0,55,0.00,,SKC,0.00,VWS V12.07,2013-05-06 10:12:00,
2013-05-06 06:17:00,56.3,40.4,29.64,North,0,0.0,0.0,55,0.00,,SKC,0.00,VWS V12.07,2013-05-06 10:17:00,
2013-05-06 06:22:00,56.3,40.4,29.64,North,0,0.0,0.0,55,0.00,,SKC,0.00,VWS V12.07,2013-05-06 10:22:00,
2013-05-06 06:27:00,56.1,40.2,29.64,North,0,0.0,0.0,55,0.00,,SKC,0.00,VWS V12.07,2013-05-06 10:27:00,
2013-05-06 06:32:00,56.3,40.4,29.64,North,0,0.0,0.0,55,0.00,,SKC,0.00,VWS V12.07,2013-05-06 10:32:00,
2013-05-06 06:37:00,56.3,40.4,29.64,North,0,0.0,0.0,55,0.00,,SKC,0.00,VWS V12.07,2013-05-06 10:37:00,
2013-05-06 06:42:00,56.3,40.4,29.65,North,0,0.0,0.0,55,0.00,,SKC,0.00,VWS V12.07,2013-05-06 10:42:00,
2013-05-06 06:47:00,56.1,40.2,29.64,North,0,0.0,0.0,55,0.00,,SKC,0.00,VWS V12.07,2013-05-06 10:47:00,
2013-05-06 06:52:00,56.1,40.2,29.65,North,0,0.0,0.0,55,0.00,,SKC,0.00,VWS V12.07,2013-05-06 10:52:00,
2013-05-06 06:57:00,56.3,40.4,29.65,North,0,0.0,0.0,55,0.00,,SKC,0.00,VWS V12.07,2013-05-06 10:57:00,
2013-05-06 07:02:00,56.1,40.2,29.65,North,0,0.0,0.0,55,0.00,,SKC,0.00,VWS V12.07,2013-05-06 11:02:00,
2013-05-06 07:07:00,56.1,40.2,29.66,North,0,0.0,0.0,55,0.00,,SKC,0.00,VWS V12.07,2013-05-06 11:07:00,
2013-05-06 07:12:00,55.9,40.0,29.65,North,0,0.0,0.0,55,0.00,,SKC,0.00,VWS V12.07,2013-05-06 11:12:00,
2013-05-06 07:17:00,55.9,40.0,29.66,North,0,0.0,0.0,55,0.00,,SKC,0.00,VWS V12.07,2013-05-06 11:17:00,
2013-05-06 07:22:00,55.9,40.0,29.66,North,0,0.0,0.0,55,0.00,,SKC,0.00,VWS V12.07,2013-05-06 11:22:00,
2013-05-06 07:27:00,55.7,39.8,29.66,North,0,0.0,0.0,55,0.00,,SKC,0.00,VWS V12.07,2013-05-06 11:27:00,
2013-05-06 07:32:00,55.7,39.8,29.66,North,0,0.0,0.0,55,0.00,,SKC,0.00,VWS V12.07,2013-05-06 11:32:00,
2013-05-06 07:37:00,55.7,39.8,29.66,North,0,0.0,0.0,55,0.00,,SKC,0.00,VWS V12.07,2013-05-06 11:37:00,
2013-05-06 07:42:00,55.7,40.3,29.66,North,0,0.0,0.0,56,0.00,,SKC,0.00,VWS V12.07,2013-05-06 11:42:00,
2013-05-06 07:47:00,55.9,40.5,29.66,North,0,0.0,0.0,56,0.00,,SKC,0.00,VWS V12.07,2013-05-06 11:47:00,
2013-05-06 07:52:00,55.9,40.5,29.66,North,0,0.0,0.0,56,0.00,,SKC,0.00,VWS V12.07,2013-05-06 11:52:00,
2013-05-06 07:57:00,55.9,40.5,29.67,North,0,0.0,0.0,56,0.00,,SKC,0.00,VWS V12.07,2013-05-06 11:57:00,
2013-05-06 08:02:00,56.1,40.6,29.67,North,0,0.0,0.0,56,0.00,,SKC,0.00,VWS V12.07,2013-05-06 12:02:00,
2013-05-06 08:07:00,56.3,40.8,29.67,North,0,0.0,0.0,56,0.00,,SKC,0.00,VWS V12.07,2013-05-06 12:07:00,
2013-05-06 08:12:00,56.3,40.4,29.68,North,0,0.0,0.0,55,0.00,,SKC,0.00,VWS V12.07,2013-05-06 12:12:00,
2013-05-06 08:17:00,56.4,40.5,29.67,North,0,0.0,0.0,55,0.00,,SKC,0.00,VWS V12.07,2013-05-06 12:17:00,
2013-05-06 08:22:00,56.6,40.6,29.68,North,0,0.0,0.0,55,0.00,,SKC,0.00,VWS V12.07,2013-05-06 12:22:00,
2013-05-06 08:27:00,56.8,40.8,29.68,North,0,0.0,0.0,55,0.00,,SKC,0.00,VWS V12.07,2013-05-06 12:27:00,
2013-05-06 08:32:00,56.8,40.8,29.68,North,0,0.0,0.0,55,0.00,,SKC,0.00,VWS V12.07,2013-05-06 12:32:00,
2013-05-06 08:37:00,57.0,41.0,29.68,North,0,0.0,0.0,55,0.00,,SKC,0.00,VWS V12.07,2013-05-06 12:37:00,
2013-05-06 08:42:00,57.2,40.7,29.68,North,0,0.0,0.0,54,0.00,,SKC,0.00,VWS V12.07,2013-05-06 12:42:00,
2013-05-06 08:47:00,57.5,41.0,29.69,North,0,0.0,0.0,54,0.00,,SKC,0.00,VWS V12.07,2013-05-06 12:47:00,
2013-05-06 08:52:00,57.7,41.2,29.69,North,0,0.0,0.0,54,0.00,,SKC,0.00,VWS V12.07,2013-05-06 12:52:00,
2013-05-06 08:57:00,57.9,40.9,29.69,North,0,0.0,0.0,53,0.00,,SKC,0.00,VWS V12.07,2013-05-06 12:57:00,
2013-05-06 09:02:00,58.1,41.1,29.69,North,0,0.0,0.0,53,0.00,,SKC,0.00,VWS V12.07,2013-05-06 13:02:00,
2013-05-06 09:07:00,58.4,41.3,29.69,North,0,0.0,0.0,53,0.00,,SKC,0.00,VWS V12.07,2013-05-06 13:07:00,
2013-05-06 09:12:00,58.8,41.7,29.68,North,0,0.0,0.0,53,0.00,,SKC,0.00,VWS V12.07,2013-05-06 13:12:00,
2013-05-06 09:17:00,59.1,42.0,29.68,North,0,0.0,0.0,53,0.00,,SKC,0.00,VWS V12.07,2013-05-06 13:17:00,
2013-05-06 09:22:00,59.5,41.9,29.69,North,0,0.0,0.0,52,0.00,,SKC,0.00,VWS V12.07,2013-05-06 13:22:00,
2013-05-06 09:27:00,59.7,42.1,29.69,North,0,0.0,0.0,52,0.00,,SKC,0.00,VWS V12.07,2013-05-06 13:27:00,
2013-05-06 09:32:00,60.4,41.7,29.69,North,0,0.0,0.0,50,0.00,,SKC,0.00,VWS V12.07,2013-05-06 13:32:00,
2013-05-06 09:37:00,60.6,41.9,29.69,North,0,0.0,0.0,50,0.00,,SKC,0.00,VWS V12.07,2013-05-06 13:37:00,
2013-05-06 09:42:00,60.8,41.5,29.69,North,0,0.0,0.0,49,0.00,,SKC,0.00,VWS V12.07,2013-05-06 13:42:00,
2013-05-06 09:47:00,61.3,42.0,29.69,North,0,0.0,0.0,49,0.00,,SKC,0.00,VWS V12.07,2013-05-06 13:47:00,
2013-05-06 09:52:00,61.5,42.2,29.69,North,0,0.0,0.0,49,0.00,,SKC,0.00,VWS V12.07,2013-05-06 13:52:00,
2013-05-06 09:57:00,61.8,43.0,29.69,North,0,0.0,0.0,50,0.00,,SKC,0.00,VWS V12.07,2013-05-06 13:57:00,
2013-05-06 10:02:00,62.7,43.3,29.69,North,0,0.0,0.0,49,0.00,,SKC,0.00,VWS V12.07,2013-05-06 14:02:00,
2013-05-06 10:07:00,63.3,43.3,29.69,North,0,0.0,0.0,48,0.00,,SKC,0.00,VWS V12.07,2013-05-06 14:07:00,
2013-05-06 10:12:00,63.6,43.0,29.69,North,0,0.0,0.0,47,0.00,,SKC,0.00,VWS V12.07,2013-05-06 14:12:00,
2013-05-06 10:17:00,64.2,43.6,29.69,North,0,0.0,0.0,47,0.00,,SKC,0.00,VWS V12.07,2013-05-06 14:17:00,
2013-05-06 10:22:00,64.4,43.8,29.69,North,0,0.0,0.0,47,0.00,,SKC,0.00,VWS V12.07,2013-05-06 14:22:00,
2013-05-06 10:27:00,64.7,43.5,29.69,North,0,0.0,0.0,46,0.00,,SKC,0.00,VWS V12.07,2013-05-06 14:27:00,
2013-05-06 10:32:00,64.9,43.7,29.69,North,0,0.0,0.0,46,0.00,,SKC,0.00,VWS V12.07,2013-05-06 14:32:00,
2013-05-06 10:38:00,65.1,43.8,29.69,North,0,0.0,0.0,46,0.00,,SKC,0.00,VWS V12.07,2013-05-06 14:38:00,
2013-05-06 10:43:00,65.4,44.1,29.69,North,0,0.0,0.0,46,0.00,,SKC,0.00,VWS V12.07,2013-05-06 14:43:00,
2013-05-06 10:48:00,66.0,44.1,29.69,North,0,0.0,0.0,45,0.00,,SKC,0.00,VWS V12.07,2013-05-06 14:48:00,
2013-05-06 10:53:00,66.3,44.9,29.69,North,0,0.0,0.0,46,0.00,,SKC,0.00,VWS V12.07,2013-05-06 14:53:00,
2013-05-06 10:58:00,66.9,45.5,29.69,North,0,0.0,0.0,46,0.00,,SKC,0.00,VWS V12.07,2013-05-06 14:58:00,
2013-05-06 11:03:00,68.0,46.5,29.69,North,0,0.0,0.0,46,0.00,,SKC,0.00,VWS V12.07,2013-05-06 15:03:00,
2013-05-06 11:08:00,68.7,46.5,29.68,North,0,0.0,0.0,45,0.00,,SKC,0.00,VWS V12.07,2013-05-06 15:08:00,
2013-05-06 11:13:00,69.4,47.2,29.69,North,0,0.0,0.0,45,0.00,,SKC,0.00,VWS V12.07,2013-05-06 15:13:00,
2013-05-06 11:18:00,70.3,47.4,29.68,North,0,0.0,0.0,44,0.00,,SKC,0.00,VWS V12.07,2013-05-06 15:18:00,
2013-05-06 11:23:00,70.8,47.2,29.68,North,0,0.0,0.0,43,0.00,,SKC,0.00,VWS V12.07,2013-05-06 15:23:00,
2013-05-06 11:28:00,71.4,47.1,29.68,North,0,0.0,0.0,42,0.00,,SKC,0.00,VWS V12.07,2013-05-06 15:28:00,
2013-05-06 11:33:00,72.3,48.6,29.68,North,0,0.0,0.0,43,0.00,,SKC,0.00,VWS V12.07,2013-05-06 15:33:00,
2013-05-06 11:38:00,73.0,48.6,29.68,North,0,0.0,0.0,42,0.00,,SKC,0.00,VWS V12.07,2013-05-06 15:38:00,
2013-05-06 11:43:00,73.5,48.4,29.68,North,0,0.0,0.0,41,0.00,,SKC,0.00,VWS V12.07,2013-05-06 15:43:00,
2013-05-06 11:48:00,74.4,49.2,29.67,North,0,0.0,0.0,41,0.00,,SKC,0.00,VWS V12.07,2013-05-06 15:48:00,
2013-05-06 11:53:00,75.0,49.1,29.67,North,0,0.0,0.0,40,0.00,,SKC,0.00,VWS V12.07,2013-05-06 15:53:00,
2013-05-06 11:58:00,75.5,49.5,29.67,North,0,0.0,0.0,40,0.00,,SKC,0.00,VWS V12.07,2013-05-06 15:58:00,
2013-05-06 12:03:00,76.2,48.8,29.67,North,0,0.0,0.0,38,0.00,,SKC,0.00,VWS V12.07,2013-05-06 16:03:00,
2013-05-06 12:08:00,76.6,49.1,29.67,North,0,0.0,0.0,38,0.00,,SKC,0.00,VWS V12.07,2013-05-06 16:08:00,
2013-05-06 12:13:00,76.8,49.3,29.67,North,0,0.0,0.0,38,0.00,,SKC,0.00,VWS V12.07,2013-05-06 16:13:00,
2013-05-06 12:18:00,77.3,49.0,29.67,North,0,0.0,0.0,37,0.00,,SKC,0.00,VWS V12.07,2013-05-06 16:18:00,
2013-05-06 12:23:00,77.7,49.4,29.67,North,0,0.0,0.0,37,0.00,,SKC,0.00,VWS V12.07,2013-05-06 16:23:00,
2013-05-06 12:28:00,78.0,49.7,29.67,North,0,0.0,0.0,37,0.00,,SKC,0.00,VWS V12.07,2013-05-06 16:28:00,
2013-05-06 12:33:00,78.6,50.2,29.66,North,0,0.0,0.0,37,0.00,,SKC,0.00,VWS V12.07,2013-05-06 16:33:00,
2013-05-06 12:38:00,78.9,50.4,29.66,North,0,0.0,0.0,37,0.00,,SKC,0.00,VWS V12.07,2013-05-06 16:38:00,
2013-05-06 12:43:00,78.6,48.7,29.66,North,0,0.0,0.0,35,0.00,,SKC,0.00,VWS V12.07,2013-05-06 16:43:00,
2013-05-06 12:48:00,78.6,48.7,29.66,North,0,0.0,0.0,35,0.00,,SKC,0.00,VWS V12.07,2013-05-06 16:48:00,
2013-05-06 12:53:00,78.4,47.0,29.66,North,0,0.0,0.0,33,0.00,,SKC,0.00,VWS V12.07,2013-05-06 16:53:00,
2013-05-06 12:58:00,78.0,48.2,29.66,North,0,0.0,0.0,35,0.00,,SKC,0.00,VWS V12.07,2013-05-06 16:58:00,
2013-05-06 13:03:00,78.0,46.6,29.66,North,0,0.0,0.0,33,0.00,,SKC,0.00,VWS V12.07,2013-05-06 17:03:00,
2013-05-06 13:08:00,78.0,45.8,29.65,North,0,0.0,0.0,32,0.00,,SKC,0.00,VWS V12.07,2013-05-06 17:08:00,
2013-05-06 13:13:00,77.9,46.5,29.65,North,0,0.0,0.0,33,0.00,,SKC,0.00,VWS V12.07,2013-05-06 17:13:00,
2013-05-06 13:18:00,78.0,46.6,29.65,North,0,0.0,0.0,33,0.00,,SKC,0.00,VWS V12.07,2013-05-06 17:18:00,
2013-05-06 13:23:00,78.2,46.0,29.65,North,0,0.0,0.0,32,0.00,,SKC,0.00,VWS V12.07,2013-05-06 17:23:00,
2013-05-06 13:28:00,78.0,46.6,29.65,North,0,0.0,0.0,33,0.00,,SKC,0.00,VWS V12.07,2013-05-06 17:28:00,
2013-05-06 13:33:00,78.4,48.5,29.65,North,0,0.0,0.0,35,0.00,,SKC,0.00,VWS V12.07,2013-05-06 17:33:00,
2013-05-06 13:38:00,78.6,48.7,29.65,North,0,0.0,0.0,35,0.00,,SKC,0.00,VWS V12.07,2013-05-06 17:38:00,
2013-05-06 13:43:00,78.9,48.2,29.65,North,0,0.0,0.0,34,0.00,,SKC,0.00,VWS V12.07,2013-05-06 17:43:00,
2013-05-06 13:48:00,79.5,47.1,29.65,North,0,0.0,0.0,32,0.00,,SKC,0.00,VWS V12.07,2013-05-06 17:48:00,
2013-05-06 13:53:00,79.5,47.9,29.65,North,0,0.0,0.0,33,0.00,,SKC,0.00,VWS V12.07,2013-05-06 17:53:00,
2013-05-06 13:58:00,79.5,47.1,29.65,North,0,0.0,0.0,32,0.00,,SKC,0.00,VWS V12.07,2013-05-06 17:58:00,
2013-05-06 14:03:00,79.8,49.0,29.65,North,0,0.0,0.0,34,0.00,,SKC,0.00,VWS V12.07,2013-05-06 18:03:00,
2013-05-06 14:08:00,80.2,47.7,29.65,North,0,0.0,0.0,32,0.00,,SKC,0.00,VWS V12.07,2013-05-06 18:08:00,
2013-05-06 14:13:00,80.4,49.5,29.65,North,0,0.0,0.0,34,0.00,,SKC,0.00,VWS V12.07,2013-05-06 18:13:00,
2013-05-06 14:18:00,81.1,50.1,29.64,North,0,0.0,0.0,34,0.00,,SKC,0.00,VWS V12.07,2013-05-06 18:18:00,
2013-05-06 14:23:00,82.0,50.1,29.64,North,0,0.0,0.0,33,0.00,,SKC,0.00,VWS V12.07,2013-05-06 18:23:00,
2013-05-06 14:28:00,82.5,51.3,29.64,North,0,0.0,0.0,34,0.00,,SKC,0.00,VWS V12.07,2013-05-06 18:28:00,
2013-05-06 14:33:00,82.9,50.9,29.64,North,0,0.0,0.0,33,0.00,,SKC,0.00,VWS V12.07,2013-05-06 18:33:00,
2013-05-06 14:38:00,83.4,51.3,29.64,North,0,0.0,0.0,33,0.00,,SKC,0.00,VWS V12.07,2013-05-06 18:38:00,
2013-05-06 14:43:00,83.4,49.6,29.64,North,0,0.0,0.0,31,0.00,,SKC,0.00,VWS V12.07,2013-05-06 18:43:00,
2013-05-06 14:48:00,83.3,49.5,29.64,North,0,0.0,0.0,31,0.00,,SKC,0.00,VWS V12.07,2013-05-06 18:48:00,
2013-05-06 14:53:00,83.3,49.5,29.64,North,0,0.0,0.0,31,0.00,,SKC,0.00,VWS V12.07,2013-05-06 18:53:00,
2013-05-06 14:58:00,83.3,50.4,29.64,North,0,0.0,0.0,32,0.00,,SKC,0.00,VWS V12.07,2013-05-06 18:58:00,
2013-05-06 15:04:00,83.8,51.7,29.64,North,0,0.0,0.0,33,0.00,,SKC,0.00,VWS V12.07,2013-05-06 19:04:00,
2013-05-06 15:09:00,84.0,50.2,29.63,North,0,0.0,0.0,31,0.00,,SKC,0.00,VWS V12.07,2013-05-06 19:09:00,
2013-05-06 15:14:00,83.8,50.0,29.64,North,0,0.0,0.0,31,0.00,,SKC,0.00,VWS V12.07,2013-05-06 19:14:00,
2013-05-06 15:19:00,83.3,50.4,29.63,North,0,0.0,0.0,32,0.00,,SKC,0.00,VWS V12.07,2013-05-06 19:19:00,
2013-05-06 15:25:00,83.1,50.2,29.63,North,0,0.0,0.0,32,0.00,,SKC,0.00,VWS V12.07,2013-05-06 19:25:00,
2013-05-06 15:30:00,83.1,51.0,29.63,North,0,0.0,0.0,33,0.00,,SKC,0.00,VWS V12.07,2013-05-06 19:30:00,
2013-05-06 15:35:00,83.1,51.0,29.63,North,0,0.0,0.0,33,0.00,,SKC,0.00,VWS V12.07,2013-05-06 19:35:00,
2013-05-06 15:40:00,83.3,51.2,29.63,North,0,0.0,0.0,33,0.00,,SKC,0.00,VWS V12.07,2013-05-06 19:40:00,
2013-05-06 15:48:00,83.3,51.2,29.63,North,0,0.0,0.0,33,0.00,,SKC,0.00,VWS V12.07,2013-05-06 19:48:00,
2013-05-06 15:53:00,83.1,51.0,29.63,North,0,0.0,0.0,33,0.00,,SKC,0.00,VWS V12.07,2013-05-06 19:53:00,
2013-05-06 15:58:00,82.7,49.0,29.63,North,0,0.0,0.0,31,0.00,,SKC,0.00,VWS V12.07,2013-05-06 19:58:00,
2013-05-06 16:03:00,82.2,49.4,29.62,North,0,0.0,0.0,32,0.00,,SKC,0.00,VWS V12.07,2013-05-06 20:03:00,
2013-05-06 16:11:00,81.1,47.6,29.62,North,0,0.0,0.0,31,0.00,,SKC,0.00,VWS V12.07,2013-05-06 20:11:00,
2013-05-06 16:16:00,80.2,47.7,29.62,North,0,0.0,0.0,32,0.00,,SKC,0.00,VWS V12.07,2013-05-06 20:16:00,
2013-05-06 16:21:00,79.8,49.0,29.62,North,0,0.0,0.0,34,0.00,,SKC,0.00,VWS V12.07,2013-05-06 20:21:00,
2013-05-06 16:26:00,79.8,49.0,29.62,North,0,0.0,0.0,34,0.00,,SKC,0.00,VWS V12.07,2013-05-06 20:26:00,
2013-05-06 16:33:00,79.8,49.0,29.62,North,0,0.0,0.0,34,0.00,,SKC,0.00,VWS V12.07,2013-05-06 20:33:00,
2013-05-06 16:38:00,79.8,49.0,29.62,North,0,0.0,0.0,34,0.00,,SKC,0.00,VWS V12.07,2013-05-06 20:38:00,
2013-05-06 16:43:00,79.8,49.0,29.61,North,0,0.0,0.0,34,0.00,,SKC,0.00,VWS V12.07,2013-05-06 20:43:00,
2013-05-06 16:48:00,79.5,48.7,29.61,North,0,0.0,0.0,34,0.00,,SKC,0.00,VWS V12.07,2013-05-06 20:48:00,
2013-05-06 16:55:00,78.9,49.0,29.61,North,0,0.0,0.0,35,0.00,,SKC,0.00,VWS V12.07,2013-05-06 20:55:00,
2013-05-06 17:00:00,79.1,49.1,29.61,North,0,0.0,0.0,35,0.00,,SKC,0.00,VWS V12.07,2013-05-06 21:00:00,
2013-05-06 17:05:00,78.9,49.0,29.61,North,0,0.0,0.0,35,0.00,,SKC,0.00,VWS V12.07,2013-05-06 21:05:00,
2013-05-06 17:10:00,78.6,48.7,29.61,North,0,0.0,0.0,35,0.00,,SKC,0.00,VWS V12.07,2013-05-06 21:10:00,
2013-05-06 17:17:00,78.0,48.9,29.61,North,0,0.0,0.0,36,0.00,,SKC,0.00,VWS V12.07,2013-05-06 21:17:00,
2013-05-06 17:22:00,77.9,48.1,29.61,North,0,0.0,0.0,35,0.00,,SKC,0.00,VWS V12.07,2013-05-06 21:22:00,
2013-05-06 17:27:00,77.9,48.8,29.61,North,0,0.0,0.0,36,0.00,,SKC,0.00,VWS V12.07,2013-05-06 21:27:00,
2013-05-06 17:32:00,77.1,47.4,29.61,North,0,0.0,0.0,35,0.00,,SKC,0.00,VWS V12.07,2013-05-06 21:32:00,
2013-05-06 17:40:00,76.8,48.6,29.60,North,0,0.0,0.0,37,0.00,,SKC,0.00,VWS V12.07,2013-05-06 21:40:00,
2013-05-06 17:45:00,76.6,48.4,29.61,North,0,0.0,0.0,37,0.00,,SKC,0.00,VWS V12.07,2013-05-06 21:45:00,
2013-05-06 17:50:00,76.4,48.9,29.61,North,0,0.0,0.0,38,0.00,,SKC,0.00,VWS V12.07,2013-05-06 21:50:00,
2013-05-06 17:55:00,76.6,49.1,29.61,North,0,0.0,0.0,38,0.00,,SKC,0.00,VWS V12.07,2013-05-06 21:55:00,
2013-05-06 18:00:00,75.9,48.5,29.61,North,0,0.0,0.0,38,0.00,,SKC,0.00,VWS V12.07,2013-05-06 22:00:00,
2013-05-06 18:05:00,75.9,48.5,29.61,North,0,0.0,0.0,38,0.00,,SKC,0.00,VWS V12.07,2013-05-06 22:05:00,
2013-05-06 18:10:00,75.7,49.0,29.61,North,0,0.0,0.0,39,0.00,,SKC,0.00,VWS V12.07,2013-05-06 22:10:00,
2013-05-06 18:15:00,75.7,49.0,29.61,North,0,0.0,0.0,39,0.00,,SKC,0.00,VWS V12.07,2013-05-06 22:15:00,
2013-05-06 18:20:00,75.5,48.8,29.61,North,0,0.0,0.0,39,0.00,,SKC,0.00,VWS V12.07,2013-05-06 22:20:00,
2013-05-06 18:26:00,75.0,48.4,29.61,North,0,0.0,0.0,39,0.00,,SKC,0.00,VWS V12.07,2013-05-06 22:26:00,
2013-05-06 18:31:00,74.8,48.9,29.61,North,0,0.0,0.0,40,0.00,,SKC,0.00,VWS V12.07,2013-05-06 22:31:00,
2013-05-06 18:36:00,74.4,48.5,29.61,North,0,0.0,0.0,40,0.00,,SKC,0.00,VWS V12.07,2013-05-06 22:36:00,
2013-05-06 18:41:00,73.9,48.7,29.61,North,0,0.0,0.0,41,0.00,,SKC,0.00,VWS V12.07,2013-05-06 22:41:00,
2013-05-06 18:46:00,73.5,48.4,29.61,North,0,0.0,0.0,41,0.00,,SKC,0.00,VWS V12.07,2013-05-06 22:46:00,
2013-05-06 18:51:00,73.5,49.0,29.61,North,0,0.0,0.0,42,0.00,,SKC,0.00,VWS V12.07,2013-05-06 22:51:00,
2013-05-06 18:56:00,73.4,48.9,29.61,North,0,0.0,0.0,42,0.00,,SKC,0.00,VWS V12.07,2013-05-06 22:56:00,
2013-05-06 19:01:00,73.2,48.8,29.62,North,0,0.0,0.0,42,0.00,,SKC,0.00,VWS V12.07,2013-05-06 23:01:00,
2013-05-06 19:06:00,73.0,48.6,29.62,North,0,0.0,0.0,42,0.00,,SKC,0.00,VWS V12.07,2013-05-06 23:06:00,
2013-05-06 19:11:00,72.8,48.4,29.62,North,0,0.0,0.0,42,0.00,,SKC,0.00,VWS V12.07,2013-05-06 23:11:00,
2013-05-06 19:16:00,72.6,48.2,29.62,North,0,0.0,0.0,42,0.00,,SKC,0.00,VWS V12.07,2013-05-06 23:16:00,
2013-05-06 19:21:00,72.5,48.8,29.62,North,0,0.0,0.0,43,0.00,,SKC,0.00,VWS V12.07,2013-05-06 23:21:00,
2013-05-06 19:26:00,72.1,48.4,29.62,North,0,0.0,0.0,43,0.00,,SKC,0.00,VWS V12.07,2013-05-06 23:26:00,
2013-05-06 19:31:00,71.7,48.0,29.62,North,0,0.0,0.0,43,0.00,,SKC,0.00,VWS V12.07,2013-05-06 23:31:00,
2013-05-06 19:36:00,71.4,48.4,29.62,North,0,0.0,0.0,44,0.00,,SKC,0.00,VWS V12.07,2013-05-06 23:36:00,
2013-05-06 19:41:00,71.2,48.2,29.63,North,0,0.0,0.0,44,0.00,,SKC,0.00,VWS V12.07,2013-05-06 23:41:00,
2013-05-06 19:46:00,70.8,47.8,29.63,North,0,0.0,0.0,44,0.00,,SKC,0.00,VWS V12.07,2013-05-06 23:46:00,
2013-05-06 19:51:00,70.7,47.7,29.63,North,0,0.0,0.0,44,0.00,,SKC,0.00,VWS V12.07,2013-05-06 23:51:00,
2013-05-06 19:56:00,70.5,48.2,29.63,North,0,0.0,0.0,45,0.00,,SKC,0.00,VWS V12.07,2013-05-06 23:56:00,
2013-05-06 20:01:00,70.3,47.4,29.63,North,0,0.0,0.0,44,0.00,,SKC,0.00,VWS V12.07,2013-05-07 00:01:00,
2013-05-06 20:06:00,70.3,47.4,29.63,North,0,0.0,0.0,44,0.00,,SKC,0.00,VWS V12.07,2013-05-07 00:06:00,
2013-05-06 20:11:00,70.1,47.8,29.62,North,0,0.0,0.0,45,0.00,,SKC,0.00,VWS V12.07,2013-05-07 00:11:00,
2013-05-06 20:16:00,69.9,47.6,29.63,North,0,0.0,0.0,45,0.00,,SKC,0.00,VWS V12.07,2013-05-07 00:16:00,
2013-05-06 20:21:00,69.9,47.6,29.63,North,0,0.0,0.0,45,0.00,,SKC,0.00,VWS V12.07,2013-05-07 00:21:00,
2013-05-06 20:26:00,69.9,47.6,29.63,North,0,0.0,0.0,45,0.00,,SKC,0.00,VWS V12.07,2013-05-07 00:26:00,
2013-05-06 20:31:00,69.8,47.5,29.63,North,0,0.0,0.0,45,0.00,,SKC,0.00,VWS V12.07,2013-05-07 00:31:00,
2013-05-06 20:36:00,69.6,47.9,29.64,North,0,0.0,0.0,46,0.00,,SKC,0.00,VWS V12.07,2013-05-07 00:36:00,
2013-05-06 20:41:00,69.2,47.6,29.64,North,0,0.0,0.0,46,0.00,,SKC,0.00,VWS V12.07,2013-05-07 00:41:00,
2013-05-06 20:46:00,68.9,47.3,29.64,North,0,0.0,0.0,46,0.00,,SKC,0.00,VWS V12.07,2013-05-07 00:46:00,
2013-05-06 20:51:00,68.7,47.1,29.64,North,0,0.0,0.0,46,0.00,,SKC,0.00,VWS V12.07,2013-05-07 00:51:00,
2013-05-06 20:56:00,68.7,47.7,29.64,North,0,0.0,0.0,47,0.00,,SKC,0.00,VWS V12.07,2013-05-07 00:56:00,
2013-05-06 21:01:00,68.5,47.5,29.64,North,0,0.0,0.0,47,0.00,,SKC,0.00,VWS V12.07,2013-05-07 01:01:00,
2013-05-06 21:06:00,68.3,47.3,29.64,North,0,0.0,0.0,47,0.00,,SKC,0.00,VWS V12.07,2013-05-07 01:06:00,
2013-05-06 21:11:00,68.1,47.1,29.65,North,0,0.0,0.0,47,0.00,,SKC,0.00,VWS V12.07,2013-05-07 01:11:00,
2013-05-06 21:16:00,67.8,46.9,29.65,North,0,0.0,0.0,47,0.00,,SKC,0.00,VWS V12.07,2013-05-07 01:16:00,
2013-05-06 21:21:00,67.8,46.9,29.65,North,0,0.0,0.0,47,0.00,,SKC,0.00,VWS V12.07,2013-05-07 01:21:00,
2013-05-06 21:26:00,67.8,47.4,29.65,North,0,0.0,0.0,48,0.00,,SKC,0.00,VWS V12.07,2013-05-07 01:26:00,
2013-05-06 21:31:00,67.6,47.2,29.65,North,0,0.0,0.0,48,0.00,,SKC,0.00,VWS V12.07,2013-05-07 01:31:00,
2013-05-06 21:36:00,67.6,47.2,29.65,North,0,0.0,0.0,48,0.00,,SKC,0.00,VWS V12.07,2013-05-07 01:36:00,
2013-05-06 21:41:00,67.2,46.9,29.65,North,0,0.0,0.0,48,0.00,,SKC,0.00,VWS V12.07,2013-05-07 01:41:00,
2013-05-06 21:46:00,67.2,46.9,29.65,North,0,0.0,0.0,48,0.00,,SKC,0.00,VWS V12.07,2013-05-07 01:46:00,
2013-05-06 21:51:00,66.9,46.6,29.66,North,0,0.0,0.0,48,0.00,,SKC,0.00,VWS V12.07,2013-05-07 01:51:00,
2013-05-06 21:56:00,66.9,46.6,29.65,North,0,0.0,0.0,48,0.00,,SKC,0.00,VWS V12.07,2013-05-07 01:56:00,
2013-05-06 22:01:00,66.5,46.8,29.66,North,0,0.0,0.0,49,0.00,,SKC,0.00,VWS V12.07,2013-05-07 02:01:00,
2013-05-06 22:06:00,66.3,46.6,29.66,North,0,0.0,0.0,49,0.00,,SKC,0.00,VWS V12.07,2013-05-07 02:06:00,
2013-05-06 22:11:00,66.2,46.5,29.66,North,0,0.0,0.0,49,0.00,,SKC,0.00,VWS V12.07,2013-05-07 02:11:00,
2013-05-06 22:16:00,66.0,46.3,29.66,North,0,0.0,0.0,49,0.00,,SKC,0.00,VWS V12.07,2013-05-07 02:16:00,
2013-05-06 22:21:00,65.8,46.7,29.66,North,0,0.0,0.0,50,0.00,,SKC,0.00,VWS V12.07,2013-05-07 02:21:00,
2013-05-06 22:26:00,65.6,46.5,29.66,North,0,0.0,0.0,50,0.00,,SKC,0.00,VWS V12.07,2013-05-07 02:26:00,
2013-05-06 22:31:00,65.4,46.3,29.66,North,0,0.0,0.0,50,0.00,,SKC,0.00,VWS V12.07,2013-05-07 02:31:00,
2013-05-06 22:36:00,65.3,46.2,29.66,North,0,0.0,0.0,50,0.00,,SKC,0.00,VWS V12.07,2013-05-07 02:36:00,
2013-05-06 22:41:00,65.1,46.0,29.66,North,0,0.0,0.0,50,0.00,,SKC,0.00,VWS V12.07,2013-05-07 02:41:00,
2013-05-06 22:46:00,64.7,45.7,29.66,North,0,0.0,0.0,50,0.00,,SKC,0.00,VWS V12.07,2013-05-07 02:46:00,
2013-05-06 22:51:00,64.5,46.0,29.66,North,0,0.0,0.0,51,0.00,,SKC,0.00,VWS V12.07,2013-05-07 02:51:00,
2013-05-06 22:56:00,64.5,46.0,29.66,North,0,0.0,0.0,51,0.00,,SKC,0.00,VWS V12.07,2013-05-07 02:56:00,
2013-05-06 23:01:00,64.2,45.7,29.66,North,0,0.0,0.0,51,0.00,,SKC,0.00,VWS V12.07,2013-05-07 03:01:00,
2013-05-06 23:06:00,64.2,46.2,29.66,North,0,0.0,0.0,52,0.00,,SKC,0.00,VWS V12.07,2013-05-07 03:06:00,
2013-05-06 23:11:00,64.0,46.0,29.67,North,0,0.0,0.0,52,0.00,,SKC,0.00,VWS V12.07,2013-05-07 03:11:00,
2013-05-06 23:16:00,63.6,45.7,29.67,North,0,0.0,0.0,52,0.00,,SKC,0.00,VWS V12.07,2013-05-07 03:16:00,
2013-05-06 23:21:00,63.5,45.6,29.67,North,0,0.0,0.0,52,0.00,,SKC,0.00,VWS V12.07,2013-05-07 03:21:00,
2013-05-06 23:26:00,63.3,45.4,29.66,North,0,0.0,0.0,52,0.00,,SKC,0.00,VWS V12.07,2013-05-07 03:26:00,
2013-05-06 23:31:00,62.9,45.0,29.66,North,0,0.0,0.0,52,0.00,,SKC,0.00,VWS V12.07,2013-05-07 03:31:00,
2013-05-06 23:36:00,62.7,44.3,29.66,North,0,0.0,0.0,51,0.00,,SKC,0.00,VWS V12.07,2013-05-07 03:36:00,
2013-05-06 23:41:00,62.7,44.3,29.66,North,0,0.0,0.0,51,0.00,,SKC,0.00,VWS V12.07,2013-05-07 03:41:00,
2013-05-06 23:46:00,62.4,44.0,29.67,North,0,0.0,0.0,51,0.00,,SKC,0.00,VWS V12.07,2013-05-07 03:46:00,
2013-05-06 23:51:00,62.4,44.0,29.66,North,0,0.0,0.0,51,0.00,,SKC,0.00,VWS V12.07,2013-05-07 03:51:00,
2013-05-06 23:56:00,62.2,43.9,29.67,North,0,0.0,0.0,51,0.00,,SKC,0.00,VWS V12.07,2013-05-07 03:56:00,